Location: Aragnouet
(42.7874°N, 0.2165°E)
Time: 02:32:37
(UTC+00:00)

Cosmos 1943 - Pass Details

Date: 09 April 2020
Orbit: 832 x 851 km, 71.0° (Epoch: 29 May)

Event Time Altitude Azimuth Distance (km) Brightness Sun altitude
Rises 19:06:49 0° 213° (SSW) 3,379 6.5 -6.5°
Reaches altitude 10° 19:09:17 10° 216° (SW) 2,452 5.9 -6.9°
Maximum altitude 19:14:51 62° 297° (WNW) 944 3.8 -7.9°
Drops below altitude 10° 19:20:30 10° 19° (NNE) 2,479 5.7 -8.9°
Sets 19:23:00 0° 22° (NNE) 3,421 6.3 -9.3°
